This is the latest recevied weather packets stored in our database for station/object dl1wer-13. If no packets are shown the sender has not sent any weather packets the latest 10 day(s).
| Time | Temp. | Humidity | Pressure | Rain* | Wind** | Luminosity | Snow |
|---|---|---|---|---|---|---|---|
| 1777370416 | 16.67° C | 44% | 1043.1 hPa | 0 mm | - | - | - |
| 1777369816 | 16.67° C | 43% | 1043.2 hPa | 0 mm | - | - | - |
| 1777369216 | 16.11° C | 43% | 1043.1 hPa | 0 mm | - | - | - |
| 1777368617 | 15.56° C | 42% | 1043.3 hPa | 0 mm | - | - | - |
| 1777367416 | 15.56° C | 42% | 1043.3 hPa | 0 mm | - | - | - |
| 1777366216 | 15° C | 42% | 1043.3 hPa | 0 mm | - | - | - |
| 1777365616 | 14.44° C | 42% | 1043.2 hPa | 0 mm | - | - | - |
| 1777365017 | 14.44° C | 43% | 1042.9 hPa | 0 mm | - | - | - |
| 1777364416 | 13.89° C | 42% | 1043.2 hPa | 0 mm | - | - | - |
| 1777363816 | 14.44° C | 44% | 1042.9 hPa | 0 mm | - | - | - |
| 1777363216 | 13.89° C | 45% | 1043.2 hPa | 0 mm | - | - | - |
| 1777362616 | 12.78° C | 48% | 1043.2 hPa | 0 mm | - | - | - |
| 1777362016 | 12.22° C | 51% | 1043.3 hPa | 0 mm | - | - | - |
| 1777361417 | 11.67° C | 61% | 1043.3 hPa | 0 mm | - | - | - |
| 1777360816 | 11.11° C | 62% | 1043 hPa | 0 mm | - | - | - |
| 1777360216 | 10° C | 68% | 1043.4 hPa | 0 mm | - | - | - |
| 1777357816 | 8.33° C | 71% | 1043.1 hPa | 0 mm | - | - | - |
| 1777357215 | 7.78° C | 73% | 1043.1 hPa | 0 mm | - | - | - |
| 1777356615 | 7.22° C | 82% | 1043 hPa | 0 mm | - | - | - |
| 1777356017 | 6.67° C | 82% | 1042.9 hPa | 0 mm | - | - | - |
| 1777354816 | 6.11° C | 83% | 1042.9 hPa | 0 mm | - | - | - |
| 1777354217 | 6.11° C | 83% | 1042.9 hPa | 0 mm | - | - | - |
| 1777353616 | 6.11° C | 84% | 1043 hPa | 0 mm | - | - | - |
| 1777353016 | 5.56° C | 87% | 1042.9 hPa | 0 mm | - | - | - |
| 1777352416 | 5° C | 89% | 1042.9 hPa | 0 mm | - | - | - |
* Rain latest hour (hover to see other rain measurements)
** Current wind speed in m/s (hover to see current wind gust speed)